FW4701 Weather Reports


Display with metric or nautical units.
time (UTC)temp
F
wind
direction
speed
MPH
gust
MPH
rain 1hr
in
rain 24hr
in
rain mn
in
humidity
%
barometer
mb
20260903184010 93 253 2.0 6.0 0.00 0.00 0.00 60 1015.3
20260903183511 93 47 2.0 6.0 0.00 0.00 0.00 60 1015.3
20260903183024 93 306 1.0 6.0 0.00 0.00 0.00 62 1015.4
20260903183017 90 122 11.0 22.0 0.00 0.00 0.00 50 1012.2
20260903182503 93 321 2.0 6.0 0.00 0.00 0.00 62 1015.4
20260903182003 93 316 2.0 6.0 0.00 0.00 0.00 62 1015.4
20260903181516 91 116 10.0 17.0 0.00 0.00 0.00 50 1012.3
20260903181508 93 238 1.0 6.0 0.00 0.00 0.00 62 1015.4
20260903181004 93 192 1.0 6.0 0.00 0.00 0.00 62 1015.5
20260903180504 92 192 2.0 5.0 0.00 0.00 0.00 64 1015.7
20260903180035 92 36 2.0 6.0 0.00 0.00 0.00 63 1015.7
20260903180018 90 88 7.0 19.0 0.00 0.00 0.00 50 1012.6
20260903175505 92 271 1.0 6.0 0.00 0.00 0.00 61 1015.7
20260903175009 93 245 2.0 3.0 0.00 0.00 0.00 61 1015.8
20260903174519 93 238 1.0 6.0 0.00 0.00 0.00 60 1015.7
20260903174511 90 124 11.0 16.0 0.00 0.00 0.00 48 1012.8
20260903174010 94 149 2.0 6.0 0.00 0.00 0.00 57 1015.4
20260903173511 94 344 1.0 5.0 0.00 0.00 0.00 59 1015.4
20260903173031 94 198 3.0 8.0 0.00 0.00 0.00 59 1015.4
20260903173022 91 115 11.0 18.0 0.00 0.00 0.00 46 1012.8
20260903172514 94 21 2.0 8.0 0.00 0.00 0.00 60 1015.4
20260903172014 94 255 2.0 7.0 0.00 0.00 0.00 59 1015.5
20260903171528 93 289 2.0 7.0 0.00 0.00 0.00 61 1015.5
20260903171507 92 122 8.0 18.0 0.00 0.00 0.00 46 1013.1
20260903171003 93 311 3.0 9.0 0.00 0.00 0.00 59 1015.5
20260903170506 93 265 5.0 9.0 0.00 0.00 0.00 60 1015.5
20260903170008 93 196 3.0 9.0 0.00 0.00 0.00 62 1015.5
20260903170004 91 86 4.0 14.0 0.00 0.00 0.00 47 1012.9
20260903165504 93 262 3.0 8.0 0.00 0.00 0.00 60 1015.4
20260903165007 93 270 3.0 10.0 0.00 0.00 0.00 61 1015.4
20260903164514 93 277 1.0 10.0 0.00 0.00 0.00 61 1015.3
20260903164501 92 175 4.0 15.0 0.00 0.00 0.00 45 1012.9
20260903164008 93 165 2.0 13.0 0.00 0.00 0.00 61 1015.3
20260903163508 92 264 1.0 13.0 0.00 0.00 0.00 63 1015.2
20260903163100 94 134 0.0 7.0 0.00 0.00 0.00 42 1013.0
20260903163023 92 188 2.0 11.0 0.00 0.00 0.00 62 1015.2
20260903162511 92 171 4.0 11.0 0.00 0.00 0.00 62 1015.2
20260903162011 92 221 2.0 10.0 0.00 0.00 0.00 61 1015.3
20260903161552 92 139 4.0 7.0 0.00 0.00 0.00 46 1013.0
20260903161529 92 184 6.0 11.0 0.00 0.00 0.00 62 1015.2
20260903161013 92 286 3.0 11.0 0.00 0.00 0.00 62 1015.3
20260903160520 92 171 5.0 13.0 0.00 0.00 0.00 63 1015.4
20260903160049 89 119 1.0 11.0 0.00 0.00 0.00 49 1013.1
20260903160009 91 211 5.0 13.0 0.00 0.00 0.00 63 1015.3
20260903155504 91 179 3.0 10.0 0.00 0.00 0.00 64 1015.4
20260903155004 91 194 2.0 10.0 0.00 0.00 0.00 62 1015.4
20260903154546 89 116 2.0 11.0 0.00 0.00 0.00 49 1013.0
20260903154513 91 268 2.0 9.0 0.00 0.00 0.00 62 1015.4
20260903154010 91 199 3.0 9.0 0.00 0.00 0.00 63 1015.4
20260903153512 90 229 4.0 9.0 0.00 0.00 0.00 66 1015.5
20260903153043 89 163 1.0 5.0 0.00 0.00 0.00 50 1012.8
20260903153018 90 165 1.0 10.0 0.00 0.00 0.00 65 1015.5
20260903152510 90 196 3.0 10.0 0.00 0.00 0.00 66 1015.6
20260903152012 89 202 2.0 8.0 0.00 0.00 0.00 67 1015.6
20260903151540 89 117 0.0 3.0 0.00 0.00 0.00 50 1012.8
20260903151522 89 290 3.0 9.0 0.00 0.00 0.00 65 1015.6
20260903151013 89 278 2.0 10.0 0.00 0.00 0.00 66 1015.6
20260903150513 89 238 4.0 10.0 0.00 0.00 0.00 66 1015.6
20260903150048 89 153 0.0 1.0 0.00 0.00 0.00 52 1012.8
20260903150034 88 219 3.0 7.0 0.00 0.00 0.00 68 1015.6
20260903145514 88 192 2.0 7.0 0.00 0.00 0.00 68 1015.6
20260903145014 87 186 3.0 9.0 0.00 0.00 0.00 70 1015.7
20260903144539 86 138 0.0 5.0 0.00 0.00 0.00 56 1012.7
20260903144510 87 244 2.0 9.0 0.00 0.00 0.00 70 1015.6
20260903144004 86 266 4.0 9.0 0.00 0.00 0.00 70 1015.6
20260903143507 86 220 2.0 7.0 0.00 0.00 0.00 72 1015.6
20260903143036 82 117 1.0 10.0 0.00 0.00 0.00 57 1012.7
20260903143015 85 177 2.0 7.0 0.00 0.00 0.00 72 1015.5
20260903142508 85 184 1.0 9.0 0.00 0.00 0.00 73 1015.5
20260903142012 85 167 2.0 9.0 0.00 0.00 0.00 74 1015.4
20260903141532 81 155 0.0 8.0 0.00 0.00 0.00 57 1012.7
20260903141524 84 244 1.0 4.0 0.00 0.00 0.00 74 1015.3
20260903141013 84 257 2.0 8.0 0.00 0.00 0.00 73 1015.4
20260903140511 84 334 2.0 8.0 0.00 0.00 0.00 74 1015.4
20260903140038 83 251 2.0 7.0 0.00 0.00 0.00 75 1015.4
20260903140021 80 120 5.0 8.0 0.00 0.00 0.00 58 1012.8
20260903135514 83 162 3.0 7.0 0.00 0.00 0.00 75 1015.3
20260903135012 83 202 2.0 7.0 0.00 0.00 0.00 76 1015.3
20260903134535 79 110 4.0 7.0 0.00 0.00 0.00 57 1012.9
20260903134526 82 213 2.0 9.0 0.00 0.00 0.00 77 1015.3
20260903134015 81 256 3.0 9.0 0.00 0.00 0.00 77 1015.4
20260903133510 81 229 2.0 7.0 0.00 0.00 0.00 78 1015.3
20260903133015 79 120 0.0 6.0 0.00 0.00 0.00 57 1012.8
20260903133012 80 234 3.0 8.0 0.00 0.00 0.00 80 1015.4
20260903132506 79 182 2.0 8.0 0.00 0.00 0.00 81 1015.5
20260903132009 79 196 3.0 8.0 0.00 0.00 0.00 82 1015.5
20260903131518 78 213 3.0 6.0 0.00 0.00 0.00 82 1015.5
20260903131512 79 119 2.0 5.0 0.00 0.00 0.00 57 1012.8
20260903131010 78 237 1.0 7.0 0.00 0.00 0.00 83 1015.5
20260903130510 77 244 3.0 7.0 0.00 0.00 0.00 84 1015.6
20260903130030 77 184 2.0 6.0 0.00 0.00 0.00 84 1015.7
20260903130007 0 0.0 0.0 0.00 0.00 0.00 1012.8
20260903125514 77 197 2.0 6.0 0.00 0.00 0.00 85 1015.7
20260903125013 76 187 1.0 5.0 0.00 0.00 0.00 85 1015.7
20260903124526 76 187 3.0 5.0 0.00 0.00 0.00 86 1015.7
20260903124501 0 0.0 0.0 0.00 0.00 0.00 1012.8
20260903124014 76 247 2.0 5.0 0.00 0.00 0.00 86 1015.7
20260903123516 75 206 2.0 4.0 0.00 0.00 0.00 87 1015.7
20260903123057 0 0.0 0.0 0.00 0.00 0.00 1012.6
20260903123036 75 189 1.0 5.0 0.00 0.00 0.00 87 1015.8
20260903122506 75 147 2.0 5.0 0.00 0.00 0.00 87 1015.7
20260903122011 75 184 1.0 5.0 0.00 0.00 0.00 88 1015.7
20260903121552 0 0.0 0.0 0.00 0.00 0.00 1012.5
20260903121517 75 200 1.0 5.0 0.00 0.00 0.00 88 1015.7
20260903121010 74 173 1.0 4.0 0.00 0.00 0.00 88 1015.8
20260903120509 74 182 2.0 4.0 0.00 0.00 0.00 89 1015.8
20260903120052 0 0.0 0.0 0.00 0.00 0.00 1012.3
20260903120020 74 194 1.0 3.0 0.00 0.00 0.00 88 1015.8
20260903115511 74 167 1.0 3.0 0.00 0.00 0.00 89 1015.9
20260903115012 74 178 1.0 5.0 0.00 0.00 0.00 89 1015.8
20260903114541 0 0.0 0.0 0.00 0.00 0.00 1012.4
20260903114538 74 207 1.0 5.0 0.00 0.00 0.00 89 1015.6
20260903114013 74 183 1.0 5.0 0.00 0.00 0.00 89 1015.7
20260903113514 74 186 1.0 4.0 0.00 0.00 0.00 88 1015.6
20260903113035 0 0.0 0.0 0.00 0.00 0.00 1012.0
20260903113029 74 191 1.0 4.0 0.00 0.00 0.00 88 1015.7
20260903112519 74 204 0.0 4.0 0.00 0.00 0.00 88 1015.5
20260903112018 74 191 1.0 3.0 0.00 0.00 0.00 88 1015.6
20260903111530 0 0.0 0.0 0.00 0.00 0.00 1011.9
20260903111007 74 191 1.0 3.0 0.00 0.00 0.00 88 1015.7
20260903110508 74 194 0.0 2.0 0.00 0.00 0.00 88 1015.6
20260903110025 0 0.0 0.0 0.00 0.00 0.00 1012.0
20260903110018 74 223 0.0 1.0 0.00 0.00 0.00 88 1015.5
20260903105512 74 223 0.0 3.0 0.00 0.00 0.00 88 1015.5
20260903105012 75 223 0.0 3.0 0.00 0.00 0.00 88 1015.5
20260903104524 75 229 0.0 2.0 0.00 0.00 0.00 87 1015.4
20260903104520 0 0.0 0.0 0.00 0.00 0.00 1011.9
20260903104012 75 229 0.0 3.0 0.00 0.00 0.00 87 1015.4
20260903103512 75 241 0.0 3.0 0.00 0.00 0.00 88 1015.5
20260903103116 76 115 3.0 6.0 0.00 0.00 0.00 63 1012.0
20260903103032 75 176 0.0 3.0 0.00 0.00 0.00 87 1015.5
20260903102516 75 202 0.0 3.0 0.00 0.00 0.00 88 1015.5
20260903102006 75 200 0.0 4.0 0.00 0.00 0.00 87 1015.5
20260903101512 77 113 4.0 6.0 0.00 0.00 0.00 62 1011.9
20260903101007 75 180 1.0 4.0 0.00 0.00 0.00 87 1015.5
20260903100507 75 192 1.0 4.0 0.00 0.00 0.00 87 1015.4
20260903100026 75 204 1.0 4.0 0.00 0.00 0.00 87 1015.4
20260903100010 76 118 2.0 3.0 0.00 0.00 0.00 62 1011.7
20260903095510 75 196 1.0 4.0 0.00 0.00 0.00 87 1015.4
20260903095010 75 204 1.0 4.0 0.00 0.00 0.00 87 1015.4
20260903094610 76 118 0.0 0.0 0.00 0.00 0.00 62 1011.7
20260903094504 75 217 1.0 4.0 0.00 0.00 0.00 87 1015.4
20260903094003 75 199 1.0 5.0 0.00 0.00 0.00 86 1015.4
20260903093503 75 201 2.0 5.0 0.00 0.00 0.00 86 1015.4
20260903093015 76 118 2.0 4.0 0.00 0.00 0.00 62 1011.9
20260903093012 75 178 2.0 5.0 0.00 0.00 0.00 86 1015.4
20260903092503 76 194 1.0 4.0 0.00 0.00 0.00 86 1015.3
20260903092004 76 229 2.0 4.0 0.00 0.00 0.00 86 1015.3
20260903091508 76 191 2.0 4.0 0.00 0.00 0.00 86 1015.3
20260903091503 76 110 2.0 3.0 0.00 0.00 0.00 62 1011.8
20260903091004 76 205 1.0 4.0 0.00 0.00 0.00 85 1015.3
20260903090507 76 178 0.0 4.0 0.00 0.00 0.00 86 1015.2
20260903090104 77 110 0.0 2.0 0.00 0.00 0.00 62 1011.8
20260903090012 76 207 0.0 4.0 0.00 0.00 0.00 85 1015.2
20260903085505 76 193 1.0 4.0 0.00 0.00 0.00 85 1015.2
20260903085008 76 195 1.0 3.0 0.00 0.00 0.00 85 1015.2
20260903084600 77 110 0.0 1.0 0.00 0.00 0.00 62 1012.0
20260903084528 76 232 1.0 3.0 0.00 0.00 0.00 85 1015.2
20260903084010 76 201 0.0 4.0 0.00 0.00 0.00 85 1015.3
20260903083512 76 188 1.0 4.0 0.00 0.00 0.00 85 1015.3
20260903083056 76 110 0.0 1.0 0.00 0.00 0.00 63 1012.0
20260903083004 76 202 1.0 6.0 0.00 0.00 0.00 85 1015.3
20260903082503 76 210 2.0 6.0 0.00 0.00 0.00 85 1015.2
20260903082003 76 194 1.0 6.0 0.00 0.00 0.00 85 1015.2
20260903081555 76 110 0.0 2.0 0.00 0.00 0.00 62 1012.1
20260903081503 76 193 0.0 3.0 0.00 0.00 0.00 85 1015.2
20260903081003 76 199 1.0 4.0 0.00 0.00 0.00 85 1015.2
20260903080504 76 224 2.0 4.0 0.00 0.00 0.00 85 1015.2
20260903080050 76 110 0.0 2.0 0.00 0.00 0.00 64 1012.3
20260903080011 76 215 1.0 4.0 0.00 0.00 0.00 85 1015.2
20260903075506 76 215 1.0 4.0 0.00 0.00 0.00 85 1015.2
20260903075007 76 206 1.0 4.0 0.00 0.00 0.00 86 1015.2
20260903074548 75 110 0.0 0.0 0.00 0.00 0.00 62 1012.2
20260903074517 77 196 1.0 5.0 0.00 0.00 0.00 86 1015.2
20260903074011 77 163 2.0 5.0 0.00 0.00 0.00 86 1015.1
20260903073512 77 189 2.0 5.0 0.00 0.00 0.00 86 1015.1
20260903073056 76 110 0.0 0.0 0.00 0.00 0.00 61 1012.2
20260903073023 77 180 0.0 4.0 0.00 0.00 0.00 86 1015.1
20260903072511 77 209 1.0 4.0 0.00 0.00 0.00 86 1015.1
20260903072003 77 188 0.0 4.0 0.00 0.00 0.00 86 1015.1
20260903071539 76 110 0.0 0.0 0.00 0.00 0.00 61 1012.2
20260903071506 77 176 2.0 4.0 0.00 0.00 0.00 86 1015.1
20260903071002 77 191 1.0 3.0 0.00 0.00 0.00 86 1015.1
20260903070504 77 174 0.0 3.0 0.00 0.00 0.00 86 1015.2
20260903070038 76 110 0.0 0.0 0.00 0.00 0.00 61 1012.5
20260903070009 77 197 0.0 3.0 0.00 0.00 0.00 86 1015.1
20260903065504 77 197 0.0 3.0 0.00 0.00 0.00 86 1015.1
20260903065006 77 225 0.0 4.0 0.00 0.00 0.00 86 1015.1
20260903064533 77 110 0.0 0.0 0.00 0.00 0.00 58 1012.7
20260903064515 78 203 1.0 5.0 0.00 0.00 0.00 86 1015.1
20260903064008 78 208 2.0 5.0 0.00 0.00 0.00 86 1015.0
20260903063508 78 192 1.0 4.0 0.00 0.00 0.00 86 1015.1
20260903063028 78 110 0.0 0.0 0.00 0.00 0.00 57 1012.6
20260903063017 78 187 1.0 4.0 0.00 0.00 0.00 87 1015.0
20260903062512 78 213 1.0 3.0 0.00 0.00 0.00 87 1015.1
20260903062013 78 217 1.0 3.0 0.00 0.00 0.00 87 1015.2
20260903061525 78 206 1.0 5.0 0.00 0.00 0.00 87 1015.3
20260903061005 78 201 1.0 5.0 0.00 0.00 0.00 87 1015.3
20260903060500 78 199 0.0 4.0 0.00 0.00 0.00 87 1015.3
20260903060019 80 107 0.0 5.0 0.00 0.00 0.00 55 1012.5
20260903060012 78 171 0.0 4.0 0.00 0.00 0.00 87 1015.2
20260903055503 78 186 2.0 4.0 0.00 0.00 0.00 87 1015.2
20260903055006 78 196 2.0 4.0 0.00 0.00 0.00 87 1015.2
20260903054521 79 187 1.0 4.0 0.00 0.00 0.00 87 1015.2
20260903054515 81 117 4.0 9.0 0.00 0.00 0.00 54 1012.7
20260903054006 79 196 1.0 4.0 0.00 0.00 0.00 87 1015.1
20260903053507 79 188 1.0 4.0 0.00 0.00 0.00 87 1015.1
20260903053018 79 175 2.0 5.0 0.00 0.00 0.00 86 1015.1
20260903053012 81 113 6.0 9.0 0.00 0.00 0.00 53 1012.6
20260903052511 79 187 1.0 5.0 0.00 0.00 0.00 86 1015.1
20260903052015 79 196 1.0 5.0 0.00 0.00 0.00 86 1015.0
20260903051524 79 204 1.0 6.0 0.00 0.00 0.00 86 1015.0
20260903051507 82 116 5.0 9.0 0.00 0.00 0.00 52 1012.8
20260903051016 79 200 2.0 6.0 0.00 0.00 0.00 86 1015.0
20260903050516 80 211 1.0 4.0 0.00 0.00 0.00 85 1015.0
20260903050033 80 203 1.0 6.0 0.00 0.00 0.00 85 1015.0
20260903050003 82 122 5.0 8.0 0.00 0.00 0.00 51 1012.8
20260903045504 80 190 2.0 6.0 0.00 0.00 0.00 85 1015.0
20260903045003 80 217 1.0 5.0 0.00 0.00 0.00 84 1015.0
20260903044600 83 119 7.0 11.0 0.00 0.00 0.00 51 1012.7
20260903044509 80 219 1.0 5.0 0.00 0.00 0.00 84 1015.1
20260903044004 81 178 1.0 4.0 0.00 0.00 0.00 84 1015.0
20260903043507 81 215 2.0 6.0 0.00 0.00 0.00 83 1015.0
20260903043100 83 109 7.0 11.0 0.00 0.00 0.00 50 1012.8
20260903043017 81 189 2.0 6.0 0.00 0.00 0.00 83 1015.0
20260903042508 81 209 2.0 6.0 0.00 0.00 0.00 83 1015.0
20260903042008 81 194 2.0 5.0 0.00 0.00 0.00 82 1015.0
20260903041556 84 110 8.0 13.0 0.00 0.00 0.00 50 1012.8
20260903041519 82 220 2.0 5.0 0.00 0.00 0.00 82 1015.0
20260903041013 82 193 1.0 4.0 0.00 0.00 0.00 81 1015.0
20260903040511 82 271 0.0 7.0 0.00 0.00 0.00 81 1015.0
20260903040058 84 116 9.0 14.0 0.00 0.00 0.00 49 1012.8
20260903040025 82 217 2.0 8.0 0.00 0.00 0.00 81 1014.9
20260903035513 82 182 1.0 8.0 0.00 0.00 0.00 81 1014.9
20260903035014 82 207 3.0 9.0 0.00 0.00 0.00 81 1014.9
20260903034552 85 101 6.0 9.0 0.00 0.00 0.00 48 1012.7
20260903034505 82 211 2.0 9.0 0.00 0.00 0.00 81 1014.9
20260903034003 82 183 2.0 9.0 0.00 0.00 0.00 81 1014.8
20260903033504 82 172 2.0 9.0 0.00 0.00 0.00 81 1014.9
20260903033049 85 120 8.0 12.0 0.00 0.00 0.00 47 1012.7
20260903033021 82 195 1.0 7.0 0.00 0.00 0.00 81 1014.9
20260903032506 82 260 3.0 7.0 0.00 0.00 0.00 81 1014.7
20260903032008 82 169 2.0 5.0 0.00 0.00 0.00 80 1014.9
20260903031551 86 89 5.0 7.0 0.00 0.00 0.00 46 1012.6
20260903031519 82 154 2.0 5.0 0.00 0.00 0.00 80 1014.8
20260903031010 82 190 2.0 7.0 0.00 0.00 0.00 80 1014.7
20260903030513 82 193 2.0 7.0 0.00 0.00 0.00 80 1014.7
20260903030045 87 124 5.0 8.0 0.00 0.00 0.00 45 1012.5
20260903030028 82 218 2.0 7.0 0.00 0.00 0.00 80 1014.7
20260903025513 82 209 1.0 7.0 0.00 0.00 0.00 80 1014.7
20260903025012 83 187 2.0 7.0 0.00 0.00 0.00 80 1014.7
20260903024548 87 120 7.0 9.0 0.00 0.00 0.00 44 1012.3
20260903024528 83 234 1.0 4.0 0.00 0.00 0.00 80 1014.7
20260903024014 83 220 1.0 5.0 0.00 0.00 0.00 80 1014.8
20260903023514 83 184 2.0 9.0 0.00 0.00 0.00 80 1014.7
20260903023057 88 115 5.0 8.0 0.00 0.00 0.00 44 1012.1
20260903023008 83 257 1.0 9.0 0.00 0.00 0.00 80 1014.7
20260903022504 83 232 2.0 7.0 0.00 0.00 0.00 80 1014.7
20260903022006 83 205 2.0 6.0 0.00 0.00 0.00 79 1014.7
20260903021544 87 105 4.0 8.0 0.00 0.00 0.00 44 1011.9
20260903021521 83 187 2.0 10.0 0.00 0.00 0.00 79 1014.8
20260903021009 83 184 2.0 11.0 0.00 0.00 0.00 78 1014.8
20260903020510 83 161 4.0 11.0 0.00 0.00 0.00 78 1014.7
20260903020039 88 86 4.0 9.0 0.00 0.00 0.00 44 1011.5
20260903020023 83 198 1.0 5.0 0.00 0.00 0.00 78 1014.6
20260903015511 83 176 1.0 5.0 0.00 0.00 0.00 77 1014.6
20260903015011 84 232 1.0 4.0 0.00 0.00 0.00 77 1014.5
20260903014535 89 63 4.0 11.0 0.00 0.00 0.00 43 1011.5
20260903014525 84 194 0.0 5.0 0.00 0.00 0.00 77 1014.6
20260903014013 84 190 1.0 5.0 0.00 0.00 0.00 77 1014.6
20260903013513 84 219 1.0 4.0 0.00 0.00 0.00 78 1014.5
20260903013032 89 109 7.0 13.0 0.00 0.00 0.00 42 1011.4
20260903013029 84 171 1.0 5.0 0.00 0.00 0.00 78 1014.5
20260903012516 84 207 2.0 5.0 0.00 0.00 0.00 77 1014.5
20260903012006 84 196 1.0 5.0 0.00 0.00 0.00 77 1014.5
20260903011528 90 82 5.0 17.0 0.00 0.00 0.00 39 1011.3
20260903011512 84 191 2.0 6.0 0.00 0.00 0.00 77 1014.5
20260903011007 85 209 2.0 6.0 0.00 0.00 0.00 77 1014.5
20260903010507 85 203 2.0 5.0 0.00 0.00 0.00 76 1014.5
20260903010026 91 69 10.0 19.0 0.00 0.00 0.00 37 1011.1
20260903010018 85 186 3.0 5.0 0.00 0.00 0.00 76 1014.5
20260903005512 85 191 2.0 6.0 0.00 0.00 0.00 75 1014.4
20260903005012 86 194 2.0 6.0 0.00 0.00 0.00 75 1014.4
20260903004533 86 195 2.0 5.0 0.00 0.00 0.00 74 1014.3
20260903004531 94 78 6.0 11.0 0.00 0.00 0.00 30 1010.8
20260903004012 86 168 1.0 6.0 0.00 0.00 0.00 74 1014.3
20260903003503 86 202 2.0 6.0 0.00 0.00 0.00 74 1014.3
20260903003025 95 86 5.0 9.0 0.00 0.00 0.00 28 1010.6
20260903003004 87 220 2.0 6.0 0.00 0.00 0.00 73 1014.3
20260903002504 87 217 1.0 6.0 0.00 0.00 0.00 73 1014.3
20260903002004 87 178 2.0 6.0 0.00 0.00 0.00 72 1014.3
20260903001522 96 78 6.0 9.0 0.00 0.00 0.00 26 1010.4
20260903001513 88 222 2.0 6.0 0.00 0.00 0.00 72 1014.3
20260903001005 88 209 1.0 5.0 0.00 0.00 0.00 72 1014.3
20260903000507 88 240 2.0 5.0 0.00 0.00 0.00 71 1014.3
20260903000016 97 83 5.0 9.0 0.00 0.00 0.00 25 1010.5
20260903000014 89 184 2.0 5.0 0.00 0.00 0.00 71 1014.3
20260902235510 89 207 1.0 6.0 0.00 0.00 0.00 71 1014.4
20260902235010 89 232 2.0 6.0 0.00 0.00 0.00 70 1014.4
20260902234614 98 63 5.0 9.0 0.00 0.00 0.00 24 1010.4
20260902234521 90 234 1.0 7.0 0.00 0.00 0.00 69 1014.5
20260902234010 90 190 3.0 7.0 0.00 0.00 0.00 69 1014.5
20260902233512 90 292 1.0 6.0 0.00 0.00 0.00 68 1014.4
20260902233028 90 262 1.0 7.0 0.00 0.00 0.00 67 1014.5
20260902233014 98 56 6.0 9.0 0.00 0.00 0.00 23 1010.4
20260902232505 91 186 1.0 7.0 0.00 0.00 0.00 65 1014.5
20260902232004 91 220 1.0 5.0 0.00 0.00 0.00 64 1014.6
20260902231511 91 240 1.0 8.0 0.00 0.00 0.00 63 1014.5
20260902231507 98 47 5.0 13.0 0.00 0.00 0.00 22 1010.5
20260902231005 92 178 2.0 8.0 0.00 0.00 0.00 62 1014.5
20260902230505 92 236 2.0 9.0 0.00 0.00 0.00 62 1014.5
20260902230011 92 246 2.0 9.0 0.00 0.00 0.00 62 1014.6
20260902230007 99 87 8.0 15.0 0.00 0.00 0.00 23 1010.4
20260902225507 92 257 2.0 9.0 0.00 0.00 0.00 62 1014.5
20260902225008 92 196 1.0 9.0 0.00 0.00 0.00 61 1014.5
20260902224518 93 176 3.0 8.0 0.00 0.00 0.00 62 1014.4
20260902224506 100 342 3.0 10.0 0.00 0.00 0.00 22 1010.4
20260902224009 93 186 2.0 9.0 0.00 0.00 0.00 61 1014.5
20260902223510 93 174 3.0 9.0 0.00 0.00 0.00 60 1014.5
20260902223101 100 59 5.0 10.0 0.00 0.00 0.00 22 1010.4
20260902223024 93 159 2.0 12.0 0.00 0.00 0.00 59 1014.5
20260902222513 94 281 4.0 12.0 0.00 0.00 0.00 58 1014.6
20260902222013 94 183 3.0 8.0 0.00 0.00 0.00 58 1014.5
20260902221600 100 14 4.0 13.0 0.00 0.00 0.00 23 1010.4
20260902221530 94 219 2.0 9.0 0.00 0.00 0.00 59 1014.5
20260902221003 94 250 4.0 11.0 0.00 0.00 0.00 59 1014.5
20260902220508 94 219 3.0 13.0 0.00 0.00 0.00 60 1014.5
20260902220055 100 42 5.0 10.0 0.00 0.00 0.00 22 1010.5
20260902220009 94 209 4.0 13.0 0.00 0.00 0.00 59 1014.5
20260902215511 94 232 2.0 11.0 0.00 0.00 0.00 59 1014.5
20260902215011 94 208 5.0 11.0 0.00 0.00 0.00 59 1014.6
20260902214553 99 74 4.0 11.0 0.00 0.00 0.00 23 1010.6
20260902214519 94 205 4.0 11.0 0.00 0.00 0.00 58 1014.6
20260902214008 94 302 3.0 11.0 0.00 0.00 0.00 57 1014.6
20260902213509 95 304 3.0 11.0 0.00 0.00 0.00 59 1014.6
20260902213052 100 116 3.0 11.0 0.00 0.00 0.00 23 1010.7
20260902213028 95 324 4.0 10.0 0.00 0.00 0.00 58 1014.7
20260902212510 95 250 5.0 9.0 0.00 0.00 0.00 59 1014.7
20260902212013 94 208 2.0 13.0 0.00 0.00 0.00 57 1014.7
20260902211549 100 127 5.0 12.0 0.00 0.00 0.00 23 1010.8
20260902211526 94 188 4.0 13.0 0.00 0.00 0.00 57 1014.7
20260902211017 94 159 4.0 12.0 0.00 0.00 0.00 56 1014.8
20260902210515 94 212 4.0 13.0 0.00 0.00 0.00 58 1014.9
20260902210046 100 60 5.0 10.0 0.00 0.00 0.00 24 1010.9
20260902210008 94 161 2.0 13.0 0.00 0.00 0.00 58 1014.9
20260902205502 94 243 3.0 8.0 0.00 0.00 0.00 58 1014.9
20260902205004 95 249 2.0 8.0 0.00 0.00 0.00 56 1014.9
20260902204543 99 51 7.0 13.0 0.00 0.00 0.00 24 1011.0
20260902204514 95 288 2.0 6.0 0.00 0.00 0.00 53 1014.9
20260902204009 95 258 2.0 12.0 0.00 0.00 0.00 59 1014.9
20260902203507 94 182 3.0 12.0 0.00 0.00 0.00 58 1014.9
20260902203044 99 68 5.0 12.0 0.00 0.00 0.00 24 1011.2
20260902203017 94 176 3.0 12.0 0.00 0.00 0.00 58 1014.9
20260902202510 95 255 3.0 11.0 0.00 0.00 0.00 58 1015.0
20260902202012 95 221 3.0 11.0 0.00 0.00 0.00 56 1015.0
20260902201536 101 60 1.0 7.0 0.00 0.00 0.00 23 1011.4
20260902201530 95 225 2.0 12.0 0.00 0.00 0.00 57 1015.1
20260902201018 95 188 6.0 12.0 0.00 0.00 0.00 57 1015.2
20260902200515 95 352 3.0 10.0 0.00 0.00 0.00 58 1015.3
20260902200033 96 212 2.0 10.0 0.00 0.00 0.00 57 1015.3
20260902195514 96 303 2.0 10.0 0.00 0.00 0.00 56 1015.3
20260902195015 96 229 4.0 11.0 0.00 0.00 0.00 58 1015.5
20260902194528 99 60 1.0 14.0 0.00 0.00 0.00 25 1011.9
20260902194513 96 279 1.0 11.0 0.00 0.00 0.00 57 1015.5
20260902194006 96 191 3.0 9.0 0.00 0.00 0.00 55 1015.5
20260902193507 96 246 3.0 9.0 0.00 0.00 0.00 58 1015.6
20260902193025 99 20 4.0 10.0 0.00 0.00 0.00 26 1012.2
20260902193016 96 207 3.0 9.0 0.00 0.00 0.00 56 1015.6
20260902192510 96 157 2.0 9.0 0.00 0.00 0.00 58 1015.7
20260902192008 96 196 4.0 9.0 0.00 0.00 0.00 57 1015.7
20260902191525 96 299 2.0 9.0 0.00 0.00 0.00 58 1015.7
20260902191521 97 54 4.0 9.0 0.00 0.00 0.00 27 1012.5
20260902191011 96 160 3.0 7.0 0.00 0.00 0.00 60 1015.7
20260902190510 95 161 2.0 7.0 0.00 0.00 0.00 58 1015.8
20260902190025 95 246 1.0 10.0 0.00 0.00 0.00 58 1015.8
20260902190022 98 93 5.0 11.0 0.00 0.00 0.00 27 1012.7
20260902185515 95 189 1.0 12.0 0.00 0.00 0.00 58 1015.8
20260902185015 95 265 2.0 12.0 0.00 0.00 0.00 58 1015.9
20260902184531 95 141 2.0 10.0 0.00 0.00 0.00 60 1016.0
20260902184512 96 290 2.0 7.0 0.00 0.00 0.00 30 1013.0